GFSWCAN_500_rhum_000.txt.gz
RH
99 96 100 91 53 45 48 46 83 100 50 48 59 50 28 15 11 11 13 14 16 18 20 18 18 17 15 15 14 11 11 10 10 9 9 7 4 4 6 8 12 16 22 31 35 30 24 30 29 29 28 27 27 27
100 100 87 67 50 45 36 80 86 98 70 72 63 39 18 14 11 12 12 13 15 16 18 18 18 17 16 14 12 11 10 11 11 10 10 8 6 4 4 5 10 16 29 30 37 40 44 40 42 44 44 41 38 35
97 99 90 66 37 35 50 89 97 100 91 82 98 33 18 14 30 90 43 14 11 12 14 14 14 14 13 13 12 11 13 14 12 10 8 8 8 7 7 7 9 14 19 20 24 33 38 37 32 36 36 37 39 44
80 70 53 31 28 60 98 100 100 100 100 100 96 26 20 16 98 99 100 89 43 22 16 15 13 13 13 12 11 12 12 9 8 6 6 7 8 8 7 6 7 12 17 20 16 22 25 35 44 46 43 44 50 54
75 61 42 26 68 96 99 100 98 99 100 100 100 55 23 20 33 41 43 36 41 40 25 23 19 15 10 8 7 7 7 7 7 6 7 7 6 5 5 5 7 21 32 24 19 28 27 32 40 47 50 61 57 57
38 88 79 69 96 94 100 100 100 100 100 99 100 100 93 44 20 14 11 8 10 10 11 10 11 9 10 10 9 9 8 8 7 8 9 8 12 11 8 10 20 35 35 37 39 50 56 65 67 74 77 74 74 71
100 94 87 100 100 100 100 100 100 100 100 98 96 91 74 64 55 37 26 31 24 21 16 11 11 13 14 16 19 23 24 23 21 20 18 17 16 16 14 16 49 61 59 68 82 79 79 91 79 88 85 83 59 52
100 100 100 100 98 100 98 100 100 100 100 100 99 99 99 86 72 65 56 46 42 37 32 28 28 35 37 36 35 35 33 32 33 39 47 53 53 52 47 51 60 73 82 98 97 92 79 73 78 75 70 63 80 85
100 100 100 100 100 100 100 100 100 100 100 100 100 100 100 100 100 100 96 84 75 69 62 56 53 56 56 60 56 51 45 48 47 45 46 40 35 34 34 39 52 65 73 75 78 72 56 57 75 84 90 93 93 92
100 100 100 100 100 100 89 96 100 100 100 100 100 100 100 100 100 100 99 84 68 56 50 49 52 50 60 61 54 48 43 44 36 36 33 24 20 28 35 42 46 48 48 54 62 88 92 91 93 99 93 87 91 99
100 99 96 99 100 100 100 100 100 95 92 89 83 78 77 86 88 82 71 65 55 46 40 37 44 64 61 46 42 36 25 23 21 22 33 38 50 59 58 58 73 87 91 91 91 95 95 89 88 93 94 91 96 100
100 100 99 98 97 96 95 86 85 81 74 64 67 63 60 59 50 42 34 35 34 40 51 80 78 69 67 77 93 77 62 46 37 43 59 56 57 69 74 77 83 86 89 91 92 93 94 95 98 99 100 100 100 96
100 100 100 100 100 100 100 100 100 100 96 89 98 100 100 99 94 84 74 69 72 78 73 65 61 67 88 99 100 97 94 84 80 73 66 61 75 78 81 85 88 92 94 94 95 97 95 96 93 90 93 96 99 100
100 100 100 100 100 100 100 100 97 99 100 100 95 97 95 81 78 73 73 78 84 88 91 91 90 93 100 100 100 100 100 95 84 79 84 96 94 93 92 81 76 74 73 76 81 88 95 97 100 100 100 100 100 100
98 100 100 100 100 100 100 100 100 100 100 99 100 100 88 84 79 80 87 90 92 91 88 90 94 96 100 100 100 98 100 100 94 94 88 83 75 68 69 75 82 91 99 100 100 100 100 100 100 100 100 100 100 100
100 100 100 100 100 100 98 98 99 98 95 94 97 93 92 93 94 95 95 95 92 90 93 99 100 100 100 100 100 100 100 94 86 80 81 79 94 99 100 95 97 98 100 99 95 98 100 100 100 100 100 100 100 93
100 100 100 100 100 100 100 100 100 100 100 95 99 100 100 100 100 100 100 100 100 100 100 100 100 100 93 90 87 77 63 50 38 44 54 67 50 72 100 100 100 100 100 100 100 100 100 100 99 98 88 63 35 23
54 53 71 75 77 69 78 79 75 83 74 61 72 96 100 100 99 96 92 82 79 73 75 66 52 41 27 18 14 12 9 5 2 2 5 20 48 86 100 100 100 100 100 100 100 100 97 79 64 46 25 18 16 15
13 13 12 14 14 10 12 12 17 12 18 24 18 13 12 18 29 38 34 14 6 6 4 4 4 4 3 3 4 5 7 8 8 8 8 9 9 13 18 29 29 75 96 93 91 81 66 52 32 22 19 19 21 24
8 9 10 10 10 9 9 8 7 6 5 5 6 6 5 5 4 5 5 6 6 7 8 9 9 9 9 8 8 8 8 8 8 8 9 10 12 18 28 48 78 92 100 95 65 58 46 30 26 25 25 27 30 31
14 13 12 11 11 10 10 10 10 10 10 8 8 8 8 8 8 8 9 9 9 9 10 10 9 9 9 9 9 9 9 9 9 9 10 11 14 28 62 99 100 100 96 53 55 50 35 29 27 28 28 28 26 26
18 18 17 15 14 13 12 12 12 11 11 11 11 10 10 10 10 10 10 10 10 10 11 11 11 11 10 10 10 10 10 10 10 11 16 38 65 83 100 100 100 99 82 69 57 49 46 42 32 26 23 23 28 30
20 19 17 16 15 14 14 14 14 14 13 13 12 12 11 12 12 12 12 12 12 12 12 12 11 11 11 10 11 11 12 15 39 86 92 84 83 95 100 96 87 75 64 60 57 49 31 23 23 23 25 28 28 28
17 17 17 18 18 18 17 16 15 14 14 14 13 12 12 14 14 14 14 13 13 13 13 13 13 15 16 18 22 49 93 97 98 86 83 88 89 82 77 73 71 70 60 37 25 23 22 22 24 28 30 31 33 32
17 16 15 14 13 13 13 12 12 11 11 11 11 11 11 11 11 12 12 12 13 16 21 26 31 42 84 100 100 100 100 97 96 80 66 65 70 74 74 63 47 37 28 24 22 24 29 32 35 36 37 34 26 21
14 12 13 12 13 14 18 21 23 24 23 23 32 33 32 26 17 11 11 22 26 40 67 100 100 100 100 100 99 98 94 83 74 84 86 83 82 75 63 52 39 31 28 27 30 33 37 39 40 36 26 20 20 18
28 42 36 39 38 40 51 61 73 72 76 76 76 78 100 100 71 56 71 97 100 100 100 100 100 100 100 100 100 100 85 87 90 90 88 78 69 58 46 36 30 31 33 36 40 41 39 34 26 21 18 17 16 16
29 42 51 56 47 56 66 75 75 82 95 98 100 99 90 85 100 98 100 100 100 100 100 97 94 94 99 100 100 100 100 100 100 82 66 55 45 38 35 35 36 37 39 39 35 32 28 20 17 17 16 15 15 14
36 44 56 72 77 73 81 88 92 90 87 88 92 100 100 100 100 100 100 100 100 100 100 100 100 100 100 100 99 94 76 62 51 44 38 36 35 36 35 35 37 37 36 35 27 18 18 19 20 16 14 14 14 16
52 52 50 52 57 63 66 67 72 79 82 85 89 96 97 98 98 99 98 96 94 91 87 80 72 62 52 46 43 40 38 37 35 35 35 36 36 34 34 35 34 28 20 16 20 23 22 19 15 14 16 19 23 26
29 28 31 34 40 40 46 57 59 58 56 53 50 47 45 43 41 40 40 40 39 38 37 36 35 35 35 35 36 35 37 38 36 34 34 34 34 30 25 19 14 14 21 26 25 24 19 16 18 22 24 28 29 29
44 44 44 45 52 60 62 65 62 58 54 50 45 42 41 42 42 42 45 44 43 41 41 41 40 40 40 38 36 36 35 33 32 32 29 24 18 14 13 15 20 26 28 26 23 20 18 20 22 23 25 26 27 29
49 46 43 37 31 32 34 37 40 43 43 44 47 49 49 49 48 47 47 49 60 67 62 53 48 46 44 42 40 36 32 29 25 22 19 18 17 19 21 24 27 30 30 25 23 21 22 23 23 22 22 24 27 30

GFSWCAN_500_rhum_003.txt.gz
RH
100 100 100 100 100 100 100 97 91 95 95 100 73 36 43 42 19 15 16 13 15 20 23 20 18 15 16 15 15 13 13 12 12 9 10 10 9 10 9 8 8 9 9 12 15 14 18 24 24 29 32 37 34 36
100 100 100 100 100 100 78 64 79 98 100 86 48 48 51 38 18 16 16 16 15 20 23 23 21 19 18 17 16 15 14 12 11 10 10 10 10 10 10 8 9 8 11 10 12 12 14 14 15 18 21 27 33 35
100 98 99 96 92 79 60 49 79 100 65 54 62 60 48 31 18 20 27 45 43 22 21 22 22 21 20 18 17 15 13 13 12 11 10 11 11 11 10 8 9 9 10 10 10 19 18 14 14 15 18 25 33 37
100 99 92 90 78 56 58 94 99 95 80 69 57 47 38 24 23 19 16 30 54 46 32 26 31 24 21 20 18 17 16 13 12 10 9 9 9 8 7 7 7 7 8 9 8 11 10 15 22 27 31 35 39 41
93 86 74 63 52 38 50 90 100 96 77 66 80 56 26 23 34 79 24 29 33 50 33 29 36 46 22 18 16 14 14 12 11 9 7 6 6 6 6 6 7 14 14 11 11 17 18 25 32 38 49 65 67 69
85 67 51 39 30 37 43 67 100 100 94 94 98 71 24 28 27 100 99 89 21 34 31 20 27 25 21 18 17 15 15 14 8 6 6 6 7 7 6 9 18 20 19 21 25 32 41 47 51 54 61 71 73 72
50 38 29 19 40 61 86 85 100 100 100 100 93 48 47 94 100 100 100 100 100 94 86 57 50 62 49 52 26 14 8 7 7 8 9 11 15 16 16 18 30 44 51 52 52 49 50 53 57 64 71 72 65 59
73 62 29 41 76 85 91 100 100 100 100 100 100 98 41 27 54 89 98 89 65 36 21 18 19 19 38 20 13 13 14 16 18 21 23 26 28 34 39 52 50 46 50 58 59 57 59 63 66 68 65 63 81 84
76 97 77 75 85 87 100 100 95 98 100 100 100 100 100 87 62 45 33 26 20 21 16 16 23 34 37 42 45 46 47 42 44 44 49 49 47 43 39 37 32 31 38 44 51 57 56 56 71 79 78 78 86 92
85 92 100 95 100 100 100 90 100 100 100 99 100 100 98 99 96 80 70 62 59 55 53 56 69 71 80 84 79 74 70 66 57 51 46 43 38 37 36 30 36 66 76 73 65 63 78 82 82 88 96 100 100 100
99 96 100 100 100 97 100 100 100 100 100 98 99 100 100 100 100 100 98 95 96 91 91 92 96 100 100 92 92 90 77 65 52 43 41 37 36 38 43 58 76 86 87 88 89 90 91 91 91 94 96 100 100 100
100 100 100 99 94 100 100 93 100 100 100 100 100 100 100 100 100 98 85 82 74 78 81 94 99 89 73 84 88 74 71 63 55 56 60 54 68 73 79 88 87 85 84 87 92 92 94 98 100 100 100 100 100 99
100 100 100 100 100 100 100 100 98 95 100 100 100 96 98 99 84 69 65 71 65 57 60 81 88 89 90 89 85 79 66 64 72 68 64 66 78 74 82 80 82 84 81 79 75 69 66 71 77 80 86 90 94 96
100 100 100 100 100 100 100 100 100 100 100 100 100 97 90 70 60 62 75 87 98 100 100 99 99 96 99 99 98 96 89 84 74 73 86 88 81 79 76 75 77 76 74 73 72 77 83 84 92 98 95 94 92 98
100 100 100 100 100 100 100 100 100 100 100 97 98 94 94 92 84 90 95 95 92 86 81 91 100 100 100 100 100 97 93 86 85 91 96 90 91 90 93 90 81 74 67 59 54 40 48 88 100 100 95 97 100 100
100 100 100 100 100 100 100 100 100 100 100 100 95 91 92 100 100 100 100 100 100 99 99 100 100 100 100 100 100 100 100 100 100 100 99 94 90 86 73 54 34 16 8 6 8 47 99 100 100 100 100 100 100 98
99 100 100 100 100 100 100 100 100 100 100 100 100 100 100 100 100 100 100 100 100 100 100 100 100 100 100 100 100 100 100 96 90 78 59 30 13 4 0 0 0 1 4 19 60 90 92 87 73 93 100 91 72 64
100 100 100 100 100 100 100 100 100 100 100 100 100 100 99 97 94 92 97 100 100 100 100 100 100 98 93 83 61 43 26 15 7 5 4 4 5 5 5 5 5 6 7 9 14 22 42 66 92 100 100 80 79 65
97 98 99 100 100 100 100 96 96 98 97 98 99 100 100 98 96 97 99 100 99 94 94 80 66 44 18 7 4 4 5 7 8 8 8 8 8 8 8 9 9 10 11 14 23 37 56 85 100 100 79 69 76 62
24 48 64 50 44 50 62 74 73 60 52 48 42 22 15 14 17 16 11 7 4 3 3 4 6 8 8 9 10 10 9 9 9 9 10 10 10 10 10 11 11 13 21 35 59 80 93 97 96 94 87 77 63 55
9 10 10 10 11 12 12 10 10 10 8 9 8 6 6 7 6 7 8 9 9 10 10 10 10 10 10 10 10 10 10 11 11 11 10 10 11 11 11 13 24 52 72 74 84 99 100 100 90 76 70 67 56 35
16 15 14 14 13 13 13 12 12 12 12 12 11 11 11 11 11 10 10 10 9 9 10 10 10 10 10 11 11 12 12 12 12 11 11 11 13 16 24 52 84 86 86 94 97 90 86 85 82 72 48 39 31 22
20 20 19 19 18 17 15 14 14 13 13 12 11 11 11 11 11 10 10 10 10 10 10 11 11 11 12 13 13 13 13 13 14 15 18 22 47 80 99 99 94 88 79 76 83 91 89 74 60 52 40 27 21 20
7 11 14 16 16 16 15 14 14 14 13 12 11 11 10 10 10 10 10 10 11 12 12 14 14 15 15 16 18 20 23 26 37 60 91 100 100 97 98 100 88 79 84 97 100 91 78 64 52 37 27 24 26 27
16 16 15 14 13 13 13 12 12 12 12 11 11 10 10 10 10 10 10 10 11 11 13 14 16 22 36 67 62 88 94 99 100 100 100 100 100 100 95 81 80 89 100 97 78 61 50 41 32 29 28 31 34 34
19 17 16 15 14 13 13 13 12 12 12 11 12 15 19 22 24 26 28 29 26 21 27 40 78 100 100 100 100 100 100 100 100 100 100 100 100 100 100 99 98 91 78 62 48 38 33 30 31 33 34 31 28 19
16 16 16 16 16 17 20 23 25 31 42 52 52 53 57 59 60 56 59 68 90 100 85 100 100 100 100 100 100 100 100 100 100 99 100 100 99 97 95 81 62 48 40 36 32 32 33 32 30 30 26 17 15 16
34 28 20 24 31 48 54 48 52 55 58 65 69 76 73 67 68 74 81 97 88 90 100 100 100 100 100 100 100 96 94 100 100 100 99 94 72 52 43 39 36 34 32 32 29 26 27 28 24 15 15 18 19 15
37 34 42 52 63 64 65 69 72 79 86 91 94 90 87 86 85 88 92 97 100 100 100 100 100 100 100 100 100 99 95 81 64 48 41 38 36 35 33 31 29 27 26 27 28 27 19 13 14 20 21 19 17 18
40 39 36 35 32 31 33 37 44 47 46 56 61 63 62 58 55 51 48 45 43 44 46 46 45 45 44 42 42 42 40 39 38 37 36 34 32 29 28 27 28 29 29 26 20 17 16 20 23 23 20 18 19 20
40 39 39 36 34 33 32 33 35 38 46 56 63 66 62 57 52 48 45 43 42 44 46 46 45 45 45 49 55 57 55 50 44 40 38 35 34 33 32 31 29 26 22 19 18 19 23 29 29 25 22 22 22 22
48 37 31 29 34 44 46 46 44 38 35 38 43 50 52 47 44 48 50 50 50 49 49 53 57 55 52 63 73 72 68 63 56 47 43 41 38 37 34 30 26 23 22 21 24 27 31 34 33 28 26 25 25 24
39 38 39 40 43 40 34 29 25 23 28 38 43 42 42 48 54 57 58 58 59 61 66 71 69 66 74 86 86 84 79 70 60 53 48 43 40 36 30 26 24 25 26 31 40 42 42 41 37 32 28 27 26 25

GFSWCAN_500_rhum_006.txt.gz
RH
98 100 100 100 94 95 98 100 85 96 100 90 71 60 50 48 51 38 25 28 27 17 22 21 18 13 10 10 11 13 15 14 13 12 11 10 8 9 10 11 11 10 9 8 8 9 10 12 10 12 12 10 12 14
100 99 94 100 100 100 98 99 100 100 88 70 57 44 44 54 50 47 26 26 22 16 22 22 23 17 15 14 15 15 14 14 13 12 12 11 9 9 11 11 12 11 11 10 10 10 10 8 8 8 9 9 11 12
100 100 100 100 100 100 99 95 94 83 62 50 45 42 48 56 44 30 42 39 20 17 26 25 24 23 20 16 16 15 13 13 12 12 13 11 10 10 10 10 11 11 10 9 8 11 8 6 7 7 9 12 17 20
100 100 100 97 99 100 92 82 70 63 65 68 57 40 48 57 41 21 30 42 25 30 45 26 27 24 23 22 19 17 17 15 14 14 13 12 11 10 9 9 8 7 7 7 6 7 7 9 13 15 17 22 29 40
100 100 100 100 95 90 82 72 66 75 78 82 58 46 50 48 32 21 22 39 50 51 41 33 25 26 24 24 23 20 19 19 18 16 14 12 11 11 9 6 6 6 6 7 8 12 14 17 23 36 42 47 51 51
98 97 92 93 90 75 87 96 82 70 66 60 61 61 49 34 24 32 45 70 71 98 66 47 30 33 32 32 33 32 23 21 19 16 14 13 13 9 6 6 8 12 15 15 17 28 48 50 48 45 44 49 48 53
96 89 62 60 97 100 99 98 90 69 66 63 50 40 32 29 66 54 100 70 96 100 96 89 92 72 64 58 62 60 39 18 17 16 14 13 8 6 6 8 16 23 30 41 50 50 43 39 36 39 41 43 46 50
81 77 57 37 83 95 95 94 85 93 96 96 96 96 99 93 99 79 72 63 69 79 84 89 70 66 55 47 41 41 34 31 28 20 11 9 9 11 15 28 41 52 56 53 45 37 32 34 51 60 64 61 68 82
53 30 51 49 71 82 95 94 99 100 100 99 100 100 100 100 100 100 100 95 95 100 90 61 59 70 61 57 58 73 71 55 24 12 17 19 25 36 48 50 48 46 44 39 32 29 38 64 71 69 72 79 82 81
92 77 86 67 71 89 100 100 100 100 99 94 99 98 99 100 100 100 100 100 100 100 100 93 74 51 37 28 26 24 24 27 28 33 40 44 49 59 57 53 47 40 39 40 44 56 72 82 83 84 82 81 80 81
100 100 100 100 93 90 92 82 88 97 99 98 100 100 81 56 68 70 76 74 67 51 36 29 44 49 54 50 62 68 59 68 59 58 66 58 50 59 70 78 81 79 77 80 86 88 87 85 83 78 75 74 73 73
87 95 97 100 100 100 100 99 92 100 100 98 100 100 98 96 82 64 52 55 46 52 62 81 90 90 93 100 100 86 82 77 63 61 61 51 58 68 83 85 80 80 81 83 84 82 82 82 83 80 75 68 59 47
86 88 96 97 84 89 100 99 99 100 100 100 96 97 92 89 83 83 86 94 100 100 100 100 98 94 91 84 70 58 58 59 68 66 63 62 81 91 82 81 84 84 84 84 81 82 84 83 76 56 36 18 8 26
100 100 99 100 91 87 76 92 100 100 100 98 100 100 100 98 89 97 100 100 100 100 100 100 94 90 89 91 89 91 85 85 79 74 78 90 96 92 87 86 87 85 84 84 85 82 67 45 19 5 1 5 13 48
100 99 95 93 88 99 93 92 100 96 98 100 97 97 91 86 83 90 100 100 100 98 91 93 96 100 100 96 97 96 96 85 79 85 98 91 92 90 90 90 91 92 83 66 41 19 5 1 1 4 5 8 11 14
100 100 100 100 100 100 100 99 100 100 100 100 99 99 100 100 100 100 94 91 100 98 100 100 99 96 98 98 95 97 100 96 99 100 99 100 97 100 98 85 63 38 13 5 4 5 6 7 8 8 9 10 14 33
98 100 100 100 100 100 99 100 100 100 100 100 100 100 97 99 100 100 100 100 100 100 100 100 100 100 100 100 100 100 100 100 100 100 100 100 90 64 36 15 5 6 6 7 8 8 9 9 10 10 12 15 22 35
100 100 100 100 99 97 100 100 100 100 100 100 100 100 100 100 100 100 100 100 100 100 100 100 100 100 100 100 100 100 100 95 85 66 40 26 13 7 7 8 8 9 9 10 9 10 10 10 12 13 18 30 51 69
100 100 99 100 100 100 100 100 99 100 100 100 100 100 100 100 100 100 100 100 100 100 100 100 100 100 98 95 86 75 53 26 14 8 9 9 10 10 9 10 10 10 11 11 11 11 12 14 24 42 56 72 91 96
94 95 98 99 99 100 100 100 99 100 99 97 100 100 100 100 100 99 95 89 80 60 37 28 26 20 14 10 9 9 10 10 10 10 10 10 10 11 11 11 11 11 12 12 13 17 35 59 73 76 82 83 77 72
23 28 41 54 66 76 74 87 85 86 92 91 87 80 60 51 46 41 31 17 12 5 7 8 8 9 10 10 11 11 11 11 11 11 11 11 12 12 12 13 13 14 15 19 38 79 92 90 89 84 76 73 77 83
33 17 8 9 10 10 15 17 21 15 17 17 16 13 11 10 10 10 10 10 10 10 11 11 10 10 10 10 11 11 11 12 12 12 13 13 14 15 16 17 19 33 62 87 94 96 99 99 89 76 72 78 79 73
16 16 16 17 17 17 16 15 14 14 12 12 12 12 11 11 11 11 10 10 10 10 10 10 10 10 10 10 11 12 14 15 16 18 20 21 23 26 36 61 91 100 100 100 100 100 97 89 78 80 83 77 61 44
14 12 12 14 16 16 15 15 15 14 14 13 12 12 11 11 10 10 10 10 10 9 9 9 9 10 10 10 12 13 15 34 96 82 67 90 97 100 100 100 100 100 100 100 100 99 96 91 85 73 58 42 32 27
20 17 15 14 13 11 11 12 12 12 12 12 12 11 11 11 10 10 10 9 8 8 8 7 8 9 11 17 28 64 97 100 100 100 100 100 100 100 100 100 100 100 93 89 87 85 80 70 52 37 31 27 24 23
21 19 19 19 18 16 16 15 14 13 12 12 11 11 10 10 10 12 15 19 24 25 22 22 28 37 91 78 98 100 100 100 100 100 100 100 100 100 100 99 91 91 92 89 80 60 41 32 30 27 25 24 25 26
18 18 18 18 17 16 15 14 14 14 15 17 21 25 30 30 33 37 41 39 41 49 55 62 76 93 94 99 97 91 87 96 100 100 100 100 100 100 99 95 92 76 60 42 33 31 30 28 26 24 25 27 24 18
20 21 23 21 20 26 32 37 36 32 36 44 53 58 68 69 70 75 74 72 71 72 75 81 86 86 88 94 97 98 97 100 100 100 100 95 83 67 51 42 38 36 35 34 33 30 25 23 25 28 27 22 18 20
42 38 35 38 47 52 54 49 45 44 47 48 41 34 37 39 43 48 51 54 54 53 52 51 52 56 60 66 69 64 58 53 46 43 41 42 43 48 52 52 51 48 42 34 26 25 28 32 31 26 21 19 20 26
47 40 37 35 33 31 32 31 30 29 28 27 27 28 33 40 48 54 58 60 60 60 57 52 47 44 44 45 46 48 50 52 55 56 56 60 66 66 64 61 55 45 38 36 38 39 37 32 27 24 22 23 28 33
52 44 39 36 36 34 30 28 27 26 27 30 34 40 42 39 37 38 43 48 48 46 45 48 52 54 53 52 52 52 57 63 66 64 62 66 72 73 72 65 56 52 49 46 43 38 31 24 22 24 29 37 41 40
40 41 41 40 37 35 33 34 35 36 37 37 34 29 25 24 29 38 45 44 43 48 56 60 60 60 59 62 66 69 73 73 71 77 84 86 83 79 75 71 68 62 55 51 41 28 23 23 25 29 37 46 49 45
41 37 35 32 30 29 27 26 24 23 24 25 28 36 50 51 49 51 53 57 59 61 63 64 66 70 75 79 80 79 81 86 87 82 72 64 60 58 58 56 53 48 39 28 25 27 27 26 26 27 29 31 32 34

GFSWCAN_500_rhum_009.txt.gz
RH
76 67 65 64 36 14 7 66 97 100 100 100 97 98 65 74 100 85 77 31 46 68 57 24 24 24 18 15 19 15 13 13 12 12 17 17 12 10 10 11 11 11 11 10 10 10 9 10 9 9 9 8 8 8
98 100 95 10 68 71 40 100 100 87 83 92 100 71 99 100 100 80 65 39 43 46 48 26 19 22 17 17 20 18 14 15 15 13 13 24 16 11 11 10 11 10 11 10 11 11 10 8 7 6 6 6 7 6
97 87 97 90 94 99 98 98 92 98 100 100 97 100 100 98 81 64 62 46 30 34 43 30 19 21 21 14 12 14 14 15 15 14 14 15 12 12 11 10 10 10 10 10 9 8 7 5 6 5 5 6 8 10
96 100 99 100 100 100 100 99 60 98 100 100 100 100 95 65 44 73 83 43 27 31 41 32 21 20 22 17 14 14 15 17 14 13 13 13 12 12 12 12 11 12 11 9 7 7 6 6 6 6 10 12 17 29
100 100 98 100 100 100 100 100 100 100 100 100 99 75 55 52 50 83 72 33 25 30 43 42 29 22 24 22 19 17 17 16 15 14 14 14 14 14 14 13 13 13 10 7 6 6 8 9 10 14 24 41 45 40
100 100 100 100 98 96 99 100 100 100 97 81 56 49 49 51 54 64 53 28 23 26 42 40 28 25 26 26 25 24 22 22 19 16 17 16 18 18 16 15 14 13 9 7 7 10 15 19 25 47 47 42 33 25
99 99 98 97 96 92 87 74 62 55 49 47 47 52 59 58 50 42 63 49 45 33 36 51 39 29 30 29 27 26 25 23 22 24 29 24 22 19 17 17 13 12 10 10 18 29 38 51 46 42 38 30 25 32
99 100 100 97 96 98 91 87 84 77 63 56 52 51 51 50 59 67 49 39 67 94 87 60 44 36 30 29 32 32 46 50 48 54 58 45 26 20 18 18 16 19 29 29 44 47 47 45 42 36 31 32 47 70
100 99 98 97 99 100 100 100 100 93 66 58 57 58 50 44 63 79 100 100 100 96 92 92 68 52 51 53 70 80 83 86 75 60 50 45 39 31 28 26 34 43 52 53 53 49 44 43 48 49 54 68 73 70
100 100 100 100 100 99 98 83 82 78 67 55 49 43 42 49 75 98 100 94 99 100 100 100 100 100 100 100 99 99 93 71 52 59 64 55 46 34 38 58 69 68 62 57 56 59 65 74 76 76 75 76 80 81
80 100 100 99 100 100 100 100 100 100 100 97 90 91 100 99 95 96 100 94 93 89 90 88 89 88 92 96 100 98 82 69 60 51 43 29 21 52 79 87 77 69 65 65 73 80 82 83 81 83 86 86 84 82
49 82 100 89 100 100 94 98 96 100 100 99 100 100 100 100 100 100 100 91 87 93 91 96 99 99 94 75 62 50 41 37 29 35 44 38 50 75 73 74 74 70 74 87 91 94 91 89 93 93 89 86 78 53
98 99 77 88 100 100 100 100 94 92 86 95 96 96 94 95 100 90 96 100 100 100 100 100 89 61 42 43 59 73 82 84 81 73 66 58 62 74 78 84 88 84 82 90 97 100 100 100 96 88 70 39 20 7
88 88 87 90 99 84 87 98 99 100 100 95 98 96 100 94 85 83 82 90 99 100 98 99 99 100 100 100 100 99 92 89 79 67 58 81 89 94 97 95 97 97 100 100 100 100 96 85 57 26 9 6 7 7
97 98 100 99 95 95 98 100 100 100 98 100 100 100 100 99 94 97 100 97 96 95 96 100 99 95 93 92 88 87 87 82 74 74 88 93 96 97 100 100 92 91 95 97 98 83 45 16 7 6 7 8 8 8
98 98 95 91 84 83 84 84 82 91 100 100 100 94 98 100 98 100 100 100 100 100 100 99 91 92 95 96 97 97 99 88 86 95 94 98 99 100 90 91 99 100 100 92 43 13 7 6 7 8 9 10 10 10
93 95 97 91 94 90 91 86 91 90 92 93 88 96 97 99 97 98 96 100 100 100 100 100 100 100 100 100 98 97 97 99 100 100 100 100 100 100 100 100 100 95 58 21 8 8 8 9 10 10 10 10 11 11
79 78 87 96 100 100 100 100 100 100 100 95 98 98 93 91 93 100 100 100 100 100 100 100 100 100 100 100 100 100 100 100 100 100 100 100 100 99 89 62 32 14 10 9 9 10 10 10 11 11 12 12 13 17
99 93 88 91 96 98 100 100 100 100 98 100 100 100 100 100 100 100 100 100 100 100 100 99 98 100 100 100 100 100 100 100 99 95 79 51 24 15 12 10 10 10 10 10 11 11 12 12 13 14 16 20 41 61
95 96 99 97 93 100 100 100 100 100 100 100 100 100 100 100 100 100 100 100 100 100 100 100 100 99 99 95 82 55 36 23 14 9 8 8 9 10 11 11 11 11 12 12 13 14 14 16 20 31 53 69 78 85
70 69 80 83 91 97 98 98 98 97 99 100 100 100 100 100 100 100 99 99 98 98 87 71 57 42 34 21 13 10 10 10 10 10 10 11 11 11 11 12 13 14 15 17 18 20 25 42 73 94 88 88 90 86
41 52 43 29 29 26 41 48 54 61 68 68 77 77 81 78 74 62 46 48 33 25 19 14 13 12 11 11 10 10 10 10 11 11 12 12 13 14 15 16 22 31 29 31 39 65 98 100 97 95 89 80 77 76
16 16 15 18 25 25 22 20 15 13 14 13 14 16 15 13 14 14 13 13 12 12 11 11 11 10 10 10 10 10 10 11 11 11 12 14 24 46 64 84 89 88 91 94 100 100 100 100 100 91 86 82 77 74
15 14 16 16 16 16 17 17 17 17 17 16 16 15 14 14 13 12 12 11 11 11 10 10 10 10 10 9 9 9 9 10 10 14 26 100 100 100 100 100 98 100 100 100 100 100 100 100 96 82 77 73 54 35
20 20 19 16 16 15 15 12 9 9 9 9 10 11 11 11 11 11 11 11 10 10 10 10 9 9 8 8 8 10 16 34 66 100 100 100 100 100 100 100 100 100 96 100 100 100 97 86 73 63 47 33 29 28
21 22 21 18 16 15 16 17 17 16 16 15 14 14 13 12 12 11 11 11 12 13 14 16 17 17 16 18 22 39 66 96 100 100 100 100 100 100 92 80 75 90 100 98 86 69 58 48 38 34 34 36 33 26
20 19 18 16 16 16 16 16 16 16 15 14 13 13 15 17 21 23 28 31 37 39 44 44 42 43 48 50 54 55 60 70 77 86 90 88 89 92 94 93 87 72 61 50 42 40 44 48 50 51 48 38 31 31
19 18 17 20 21 21 21 22 23 25 29 32 33 38 40 39 35 34 33 31 30 30 32 34 40 46 49 51 54 56 59 62 64 66 68 69 66 61 51 46 45 47 48 52 54 57 58 59 57 49 42 39 41 43
29 34 36 35 34 37 37 34 33 30 28 27 26 26 26 25 24 24 23 24 25 28 33 38 43 50 55 58 58 56 51 47 44 44 45 45 46 50 54 54 58 61 62 62 65 69 69 65 59 55 53 50 48 38
51 47 41 40 39 38 34 32 31 30 28 27 25 24 25 25 25 24 25 27 31 34 34 32 33 36 41 41 42 44 49 55 56 56 54 55 56 58 62 67 68 67 68 70 71 69 66 64 65 65 60 52 38 27
51 44 40 36 34 32 28 27 25 26 28 28 27 27 28 30 31 32 32 31 29 27 27 32 40 44 45 45 48 56 63 65 65 65 65 65 70 74 74 72 69 50 25 13 14 16 21 27 32 35 33 28 26 26
38 36 33 32 32 31 30 30 29 28 29 28 26 25 24 24 24 24 26 35 44 43 41 42 44 49 54 58 64 68 71 72 74 78 82 82 80 76 52 19 10 10 12 14 13 14 17 22 26 30 33 32 30 29
40 38 36 33 31 29 25 23 22 23 24 24 28 32 34 35 36 42 48 48 47 48 52 56 62 69 74 79 82 84 85 86 85 79 60 30 13 11 12 15 19 20 21 23 24 26 28 30 32 33 33 33 33 32

GFSWCAN_500_rhum_015.txt.gz
RH
100 100 92 59 58 88 86 52 66 87 100 63 12 2 3 3 3 5 3 2 26 46 84 70 68 66 68 50 43 33 99 63 26 20 11 13 14 14 12 12 11 11 11 12 12 11 10 10 10 11 12 10 10 8
96 78 58 56 93 100 63 51 81 100 99 97 14 2 3 41 12 5 4 3 36 63 99 94 54 74 73 45 39 33 99 40 12 11 14 18 18 16 14 12 12 11 11 11 12 13 11 9 9 8 8 7 7 6
79 86 88 96 100 100 69 55 84 100 100 23 2 2 2 3 3 6 36 31 40 54 90 88 62 66 96 60 53 47 20 22 13 13 16 17 18 17 17 18 16 12 13 12 14 13 11 9 8 8 8 10 9 7
60 73 79 81 75 61 50 68 61 80 85 7 2 2 30 50 9 30 57 41 58 79 97 96 98 67 63 33 39 81 18 26 16 14 16 16 16 20 24 23 22 18 16 17 15 14 10 10 9 9 9 10 9 8
60 37 42 46 48 47 47 57 69 44 14 2 2 26 93 61 38 59 60 97 88 100 100 99 99 69 63 44 47 63 30 28 24 19 19 15 15 17 21 20 18 16 15 14 12 14 14 14 15 15 15 14 12 11
83 79 55 68 82 72 61 64 36 12 2 1 18 67 99 100 47 83 99 100 98 100 98 100 100 62 66 90 80 55 30 64 34 29 26 24 22 20 19 17 16 16 17 17 16 14 16 17 17 18 18 17 16 17
100 85 61 74 25 20 17 10 2 1 15 54 77 78 100 83 72 99 99 100 98 97 99 97 100 100 85 89 84 57 23 28 26 31 30 29 31 27 19 16 17 18 21 21 19 17 22 29 38 35 30 26 22 29
79 98 100 46 20 31 40 30 84 97 96 87 69 88 75 70 48 32 60 100 100 100 94 97 83 66 79 84 74 47 26 29 42 32 30 29 28 25 20 16 18 19 20 22 34 46 47 50 48 46 39 29 40 59
100 100 74 72 98 84 80 93 98 85 63 64 58 82 99 99 99 100 93 100 100 100 100 99 68 49 44 51 60 63 48 28 24 32 37 33 25 20 16 17 24 21 22 30 73 74 67 62 58 44 34 46 62 65
99 100 84 85 100 100 71 48 35 47 60 55 46 83 100 85 94 97 100 99 98 93 67 58 40 39 43 44 41 48 51 37 25 23 29 28 28 27 25 28 30 43 56 84 86 76 65 54 41 42 60 70 67 68
99 98 98 96 94 99 98 95 100 82 79 91 74 46 59 91 100 97 96 73 60 52 52 42 47 54 63 64 60 57 52 45 33 26 30 29 29 34 41 98 100 97 95 95 89 74 48 52 73 76 73 72 81 96
100 100 100 100 100 100 100 100 100 100 93 90 82 69 61 75 70 62 53 47 49 47 34 74 94 97 88 70 73 78 73 65 56 46 42 38 42 53 74 86 90 100 97 89 67 64 77 75 73 76 87 98 100 100
100 100 100 100 100 100 100 99 96 100 100 92 96 100 90 83 77 50 44 44 65 46 45 85 99 98 99 100 94 90 85 76 69 65 58 63 99 100 100 100 97 92 89 100 95 91 84 85 90 93 100 100 100 100
94 98 100 100 100 98 100 100 98 100 100 99 97 100 96 98 84 88 88 100 78 99 100 98 100 100 100 100 100 100 100 99 100 100 100 100 100 100 98 89 94 100 100 95 97 95 96 95 98 100 100 100 100 100
99 100 100 100 100 100 100 98 97 100 97 94 94 95 85 99 99 100 99 85 70 94 96 97 85 85 90 93 91 95 95 83 68 69 83 83 89 98 100 100 100 100 99 100 100 93 98 100 100 100 100 100 100 100
62 54 78 99 100 100 100 100 100 100 100 97 81 74 74 80 95 95 100 100 100 100 98 97 99 98 100 99 99 100 100 86 80 88 89 90 92 94 98 98 100 100 100 100 98 100 100 100 100 100 100 100 76 36
80 79 71 80 96 94 90 97 98 100 100 100 99 100 100 100 98 95 95 98 95 96 95 100 100 100 100 100 99 85 79 84 89 90 97 96 90 91 94 100 100 100 98 98 100 100 100 100 100 100 87 53 22 11
69 71 77 76 73 76 86 91 98 100 100 100 98 100 100 100 100 100 100 100 100 100 100 100 100 100 100 100 99 100 100 100 100 98 89 81 84 88 94 100 100 100 100 100 100 100 100 100 86 50 19 10 10 12
85 88 87 86 84 84 81 76 80 98 100 100 100 100 100 100 100 100 100 100 100 100 100 100 100 100 100 100 100 98 93 92 93 92 91 91 97 100 100 100 100 100 100 100 100 97 80 44 16 11 11 12 12 14
75 83 86 89 88 97 99 98 93 94 100 100 100 100 100 100 100 100 100 98 100 100 100 100 100 100 100 100 100 100 100 100 100 100 100 100 100 100 100 100 100 99 96 80 48 21 12 11 11 11 12 16 25 50
59 64 70 77 90 98 96 98 100 100 100 100 100 100 100 100 100 100 100 100 100 100 100 100 100 100 100 100 100 100 100 100 100 100 100 100 100 100 98 95 71 38 18 12 11 10 10 11 12 18 33 68 95 98
52 52 56 60 63 66 73 84 90 97 100 100 100 100 100 100 100 100 100 100 100 100 100 100 100 100 100 100 100 100 100 100 100 99 93 77 49 28 15 12 11 11 11 11 12 13 14 21 37 55 87 100 97 96
18 21 19 18 23 24 27 34 40 47 56 64 78 90 96 97 98 96 95 96 97 94 91 84 80 79 76 68 49 35 28 20 17 14 13 12 12 11 11 11 11 11 12 14 20 28 63 100 100 100 100 100 100 100
10 10 10 9 9 10 10 9 9 10 11 12 12 14 17 20 21 22 24 27 30 28 29 25 18 17 16 15 14 14 13 12 12 11 11 11 11 11 11 11 12 19 35 56 74 98 100 100 100 100 100 100 100 94
14 14 11 12 12 11 10 9 9 8 8 10 12 12 12 12 13 13 14 13 13 13 13 13 13 12 12 12 12 12 12 12 12 12 13 13 15 17 18 23 28 36 42 54 69 86 95 96 93 93 90 79 67 52
28 23 21 17 15 14 13 12 12 11 10 10 12 12 12 13 15 16 16 16 16 16 16 16 15 15 15 15 16 17 18 20 20 20 19 19 20 20 23 28 37 42 48 53 54 55 56 56 54 51 51 54 54 53
31 27 21 18 16 15 14 14 14 15 15 15 16 17 17 17 18 18 18 19 20 22 24 25 25 24 24 24 23 22 21 20 19 19 18 19 23 30 33 34 39 43 44 44 43 43 44 48 53 57 59 61 62 62
27 23 20 18 16 14 15 17 18 19 21 24 26 32 33 32 31 30 29 28 27 26 26 24 23 22 20 20 19 20 20 22 23 24 26 30 31 30 28 29 32 35 38 41 44 47 51 58 65 68 70 76 80 79
27 25 20 17 18 22 30 35 37 37 36 35 33 31 29 27 26 25 24 23 22 21 20 20 20 20 21 22 23 25 26 28 28 27 26 28 33 39 40 41 41 44 49 54 60 66 71 77 82 83 75 56 29 15
25 27 35 45 52 53 51 48 45 43 41 38 35 33 31 28 24 22 22 21 21 21 22 23 23 23 24 25 25 24 24 25 32 40 43 40 36 37 40 42 46 50 56 60 61 55 41 30 23 20 19 18 17 16
37 45 52 53 51 46 41 37 34 32 30 29 27 26 26 26 26 27 26 25 24 23 23 22 23 24 26 28 30 34 47 52 48 41 37 38 41 42 43 44 44 39 32 27 26 25 24 24 24 25 25 24 24 24
22 23 24 25 25 26 26 27 29 29 29 31 31 30 27 24 24 24 25 26 28 30 34 39 43 46 47 48 50 48 44 42 41 44 46 46 45 40 32 26 24 24 26 28 32 35 37 39 42 44 45 45 44 44
35 39 39 38 37 37 35 33 32 32 29 27 27 28 33 41 46 47 48 50 52 54 56 56 55 54 52 51 51 50 49 47 43 38 31 25 25 28 33 39 46 52 55 59 60 60 59 58 56 55 54 53 53 52

GFSWCAN_500_rhum_021.txt.gz
RH
100 100 100 100 100 100 100 100 100 96 71 68 66 60 48 38 28 14 2 2 3 3 3 5 6 6 5 6 7 19 50 35 43 42 75 98 36 17 22 25 20 26 19 8 12 15 19 32 36 28 29 30 32 37
96 100 100 100 100 100 100 100 100 100 100 94 77 67 58 41 27 19 3 2 3 3 3 5 5 5 5 7 7 22 23 26 32 42 65 88 54 22 22 26 22 28 9 10 12 14 19 20 17 21 22 23 20 16
98 99 100 100 100 100 100 100 100 100 97 77 69 65 57 37 28 17 4 2 3 3 3 5 6 6 7 10 8 21 15 29 30 47 86 97 60 38 22 30 23 11 10 11 12 13 13 13 16 17 17 17 17 16
86 96 99 99 99 100 100 94 92 94 97 91 79 73 64 44 31 15 5 2 4 4 4 8 21 51 7 15 13 12 30 36 38 83 99 97 94 65 41 52 26 12 14 13 13 15 15 16 20 19 17 17 17 16
100 98 98 100 100 100 95 72 61 61 63 65 53 42 39 35 20 8 12 2 4 25 10 59 66 55 19 17 24 23 26 35 59 92 99 97 90 82 80 68 12 17 18 17 21 30 26 24 21 18 17 16 16 15
86 66 51 55 69 66 56 49 42 35 30 34 35 32 28 21 7 49 100 15 10 59 99 97 53 35 18 13 19 29 35 42 54 88 90 76 95 99 95 50 21 22 25 22 24 28 27 24 20 17 16 17 16 16
57 57 63 74 78 66 60 50 49 36 24 16 16 20 14 16 64 95 24 8 83 100 97 78 76 86 70 40 44 25 55 60 94 100 96 67 82 95 86 83 39 32 27 24 24 23 21 22 22 22 22 20 18 16
84 89 86 88 84 81 69 80 91 100 100 94 89 97 20 12 35 29 19 35 81 56 90 58 86 98 80 67 64 54 48 99 80 75 74 66 68 71 54 37 31 32 31 27 29 33 33 32 30 27 25 21 19 20
68 70 70 71 70 72 78 100 90 100 100 98 59 20 84 91 100 92 100 67 15 49 90 100 91 100 96 85 80 77 97 100 83 84 96 86 90 80 78 64 72 65 54 50 46 46 45 40 35 29 25 26 30 32
39 48 52 50 48 58 86 82 73 94 52 9 15 87 98 45 82 100 56 63 51 58 68 82 88 97 99 97 100 95 98 96 99 93 86 84 99 99 96 96 87 84 85 77 68 63 46 40 39 40 42 41 44 65
13 27 29 21 19 22 22 24 10 4 3 3 4 6 64 93 100 97 71 72 76 72 41 77 73 54 95 100 100 99 100 100 99 94 91 69 68 79 92 100 100 88 75 70 69 65 63 59 60 63 79 89 97 100
2 2 2 2 4 3 3 3 5 7 12 12 38 96 100 100 98 100 100 100 100 100 100 88 64 35 67 96 99 99 100 96 89 81 76 64 65 70 72 68 60 57 52 47 45 48 54 60 79 90 96 96 96 97
6 5 2 2 2 4 11 26 66 49 98 100 100 100 100 100 100 100 100 100 100 100 100 100 100 99 80 100 98 97 76 69 74 68 53 47 59 75 77 75 72 68 60 58 66 98 100 87 73 81 98 100 100 100
31 22 31 8 4 15 31 84 93 92 99 100 100 100 100 100 100 100 99 100 100 100 91 74 81 90 100 100 100 98 88 83 74 70 65 72 82 78 82 82 81 84 87 90 91 93 100 100 100 100 99 100 100 100
60 55 51 78 93 93 100 100 100 100 100 100 100 100 100 100 100 100 100 100 95 90 86 74 63 53 67 84 96 96 96 97 92 92 88 89 84 88 81 78 91 100 100 100 100 100 100 100 100 100 98 93 97 100
76 70 79 79 84 94 88 100 100 100 100 100 98 100 95 66 75 99 100 100 94 90 88 81 76 61 83 96 100 97 98 98 100 99 94 86 97 100 100 100 100 99 97 98 98 94 98 100 100 100 100 100 100 100
99 96 100 99 100 100 100 96 82 70 73 80 80 72 71 97 83 83 87 89 80 81 88 75 98 100 99 99 99 92 91 99 98 98 96 99 100 100 97 97 96 94 97 100 100 100 100 100 100 100 100 100 100 100
100 96 94 99 100 100 100 100 100 100 99 99 87 81 86 85 87 91 92 91 94 94 96 96 100 100 99 94 97 99 99 100 100 97 98 100 100 100 100 100 100 100 100 100 100 100 100 100 100 100 100 100 100 100
77 95 100 100 100 100 100 100 99 95 97 98 100 100 97 99 100 96 88 83 88 95 100 100 99 100 100 100 100 99 95 92 88 85 88 88 93 99 100 100 100 100 100 100 100 100 100 100 100 100 100 100 100 98
66 73 75 77 82 92 100 100 100 100 100 100 97 92 96 98 94 89 85 85 93 100 100 100 100 100 100 100 100 100 98 98 99 100 100 100 100 100 100 100 100 100 100 100 100 100 100 100 100 100 99 95 93 82
55 54 55 59 64 69 71 77 87 97 100 100 100 100 100 100 100 100 100 100 100 100 100 100 100 100 100 100 100 100 100 100 100 100 100 100 100 100 100 100 100 100 100 100 100 100 100 100 97 86 64 48 32 18
26 33 44 53 62 66 67 79 85 96 99 100 100 100 100 100 100 100 100 100 100 100 100 100 100 100 100 100 100 100 100 100 100 100 100 100 100 100 100 100 100 100 99 96 94 92 83 66 47 25 19 19 23 27
12 12 14 14 21 36 53 64 86 94 100 100 100 100 100 100 100 100 100 100 100 100 100 100 100 100 100 100 100 100 100 100 100 100 100 100 100 100 99 100 99 99 94 83 65 43 32 25 22 22 21 21 20 18
6 6 6 7 8 10 13 12 10 9 8 9 9 9 9 9 11 15 19 24 33 44 50 56 69 81 88 93 94 94 95 94 94 93 85 80 71 63 52 42 33 25 23 22 23 23 22 21 19 18 18 18 21 26
9 10 8 8 8 8 9 9 9 8 8 8 8 8 9 9 8 9 9 8 8 8 9 11 12 13 14 15 16 16 18 18 18 18 19 19 19 20 22 23 23 23 23 22 21 20 19 18 18 19 22 26 30 32
14 14 13 14 14 15 13 12 12 14 14 13 12 12 12 11 11 11 11 11 11 12 14 15 16 16 17 18 19 20 21 22 23 23 25 25 24 24 23 22 21 20 19 19 19 18 19 20 22 25 26 27 28 31
21 20 19 19 21 22 22 21 19 18 16 17 17 16 15 15 14 14 15 17 19 21 23 24 24 24 25 26 26 26 26 26 25 24 24 24 23 22 21 20 19 19 18 19 20 22 23 25 26 29 38 51 60 60
28 32 33 31 30 27 26 22 21 20 21 22 19 18 18 20 24 27 30 32 32 32 31 30 29 29 28 29 31 31 31 29 27 24 22 19 19 20 20 21 21 21 21 23 26 30 34 40 47 52 55 55 55 52
42 41 39 36 35 32 27 27 27 24 19 16 16 22 36 46 50 51 49 47 45 43 42 41 39 37 34 31 29 27 24 23 23 22 22 22 22 22 22 25 30 36 42 47 49 51 52 51 49 45 40 36 32 29
52 46 44 39 34 32 28 21 16 15 16 19 21 22 23 23 24 25 26 27 28 29 30 30 30 29 28 27 26 25 24 23 23 26 28 32 37 41 43 44 44 42 38 33 28 24 21 20 19 19 18 18 17 17
48 40 37 32 23 17 16 19 22 25 27 28 29 29 29 29 29 29 28 27 27 27 26 26 25 27 28 32 36 39 41 42 44 43 42 39 36 29 22 17 15 15 15 15 15 15 15 15 16 16 17 17 17 18
37 26 20 18 20 22 25 27 30 33 34 35 34 32 30 28 27 28 29 29 30 29 30 33 37 42 45 47 47 45 42 40 34 25 19 16 15 15 16 15 15 14 14 14 16 18 20 20 17 12 8 7 6 7
22 23 26 28 31 32 32 34 34 36 40 40 37 32 30 34 40 41 40 42 45 48 50 51 50 48 45 39 28 22 20 18 16 16 17 17 17 17 17 16 16 16 16 18 20 23 27 33 36 36 28 16 7 4

GFSWCAN_500_rhum_024.txt.gz
RH
93 83 86 81 82 94 100 100 100 100 100 100 100 100 100 100 71 21 5 2 3 5 7 10 9 8 7 8 11 15 39 65 37 26 53 68 63 72 76 69 51 36 56 56 66 27 12 12 12 18 27 29 29 29
100 100 99 67 45 61 100 100 100 100 100 100 100 100 100 60 38 20 5 2 2 4 5 7 9 8 8 6 7 10 20 26 36 29 37 73 50 65 42 49 55 29 37 36 29 29 11 10 14 23 25 29 27 26
99 99 100 100 100 100 100 100 100 100 100 100 100 100 95 44 45 24 6 3 2 3 4 5 6 7 7 6 7 9 10 12 16 29 57 73 48 55 61 67 78 25 25 31 30 24 11 13 14 15 15 15 15 15
100 100 100 100 100 100 100 100 100 100 100 100 98 92 73 58 38 23 5 2 2 4 4 5 4 6 20 7 6 7 6 9 14 32 72 94 45 55 60 85 97 40 36 40 29 11 13 17 17 17 21 21 19 18
97 100 100 100 100 100 100 100 100 100 100 99 86 81 69 47 38 24 7 3 2 5 4 4 6 28 42 44 6 6 6 7 13 40 45 33 49 86 78 86 97 61 48 55 31 17 17 17 20 24 25 23 21 20
89 90 91 94 100 100 100 100 100 100 100 100 100 87 63 56 36 22 12 3 2 3 22 13 16 14 29 20 10 6 6 7 9 53 49 59 76 91 95 84 96 94 80 71 24 20 20 22 24 28 28 26 22 21
78 93 95 86 86 89 87 83 86 94 98 94 78 72 75 61 40 24 14 17 3 4 24 9 5 15 16 24 29 12 10 12 8 16 53 76 95 96 83 79 100 99 96 98 30 26 25 25 26 26 24 22 19 19
53 54 57 64 69 63 51 44 41 46 66 70 72 65 49 52 39 22 53 57 39 14 36 26 6 11 55 54 46 32 13 16 17 13 45 79 93 92 83 79 66 84 100 98 85 69 35 33 27 25 22 21 24 30
73 75 74 68 61 53 47 39 30 29 32 32 38 38 38 32 26 53 90 91 91 61 13 6 5 25 64 76 73 90 30 28 33 35 48 80 90 81 79 82 73 99 100 100 81 60 45 42 39 36 36 38 49 50
83 82 72 60 46 43 82 95 55 42 25 27 35 33 31 49 94 100 100 100 100 85 17 29 94 100 77 73 100 88 64 70 79 57 68 84 77 90 100 97 99 88 92 100 92 81 88 90 79 75 82 80 69 57
64 67 67 73 80 64 93 99 85 55 78 39 20 17 35 81 97 100 100 100 94 19 41 100 100 100 94 99 99 100 80 82 77 75 71 98 76 87 90 100 100 100 100 99 99 99 100 100 99 94 88 81 76 54
38 42 45 55 55 62 62 76 50 32 50 76 85 96 100 100 100 100 84 73 56 80 98 98 91 96 88 92 99 100 95 82 92 86 96 97 99 100 100 100 100 98 99 97 96 94 86 66 58 55 51 50 61 85
99 100 40 15 43 78 85 90 91 91 100 99 100 100 100 100 100 81 79 99 80 59 48 51 65 100 99 99 98 98 100 99 98 100 100 100 100 100 100 99 98 97 94 97 98 94 82 73 66 62 71 99 100 100
100 100 16 29 87 96 100 100 100 100 100 100 100 100 100 100 100 94 57 60 54 77 83 81 80 98 100 51 76 56 67 100 100 91 99 100 98 97 99 92 86 91 93 84 79 76 77 84 90 93 96 100 100 100
81 94 36 32 61 82 97 100 98 100 100 100 100 100 100 100 100 100 96 100 100 99 100 100 100 99 98 96 92 96 89 70 85 99 98 91 90 97 94 90 94 99 100 100 97 96 95 100 100 100 100 100 100 100
82 86 81 94 97 100 100 94 95 100 100 100 100 100 100 96 99 100 100 98 92 91 81 73 77 67 67 86 100 100 100 96 100 99 97 81 99 100 96 99 99 100 99 100 100 100 98 100 100 100 99 97 97 100
93 98 99 100 100 100 100 100 100 100 100 100 100 100 94 92 99 78 89 89 84 90 84 78 74 64 55 56 74 100 100 100 100 95 90 99 100 100 100 100 100 100 100 100 100 100 100 100 98 94 98 100 100 100
100 100 100 99 91 84 87 96 87 75 80 82 78 88 86 92 92 87 85 84 90 100 100 100 100 100 100 90 86 83 77 80 80 81 96 100 100 100 100 100 100 100 100 100 100 100 100 99 100 100 100 100 100 100
100 100 100 100 97 100 100 96 92 96 94 88 79 78 85 80 79 84 83 86 100 100 97 94 92 96 98 100 100 100 100 97 94 96 99 100 100 100 100 100 100 100 99 100 100 100 100 100 100 100 100 100 100 100
100 100 100 100 100 100 100 100 92 99 100 97 94 93 92 98 100 96 100 100 100 100 100 100 98 99 95 89 86 86 91 96 99 100 100 100 100 100 99 100 100 100 100 100 100 100 100 100 100 100 100 100 100 100
79 85 91 94 100 100 97 98 99 100 100 100 100 100 98 95 93 91 89 89 94 98 98 98 98 99 98 99 100 100 100 100 100 99 98 100 100 100 100 100 100 100 100 100 100 100 100 100 100 100 100 100 99 94
80 78 77 72 71 71 69 72 79 88 91 91 89 89 89 89 87 87 90 94 98 100 100 100 100 100 100 100 100 100 100 100 100 100 100 100 100 100 100 100 100 100 100 100 100 100 100 98 95 91 88 90 88 91
33 30 34 34 51 62 68 75 90 96 98 97 99 99 97 96 94 90 91 90 91 93 96 98 100 100 100 100 100 100 100 100 100 100 100 100 100 100 100 100 100 100 100 98 94 89 80 71 62 52 42 35 32 29
5 6 6 6 6 7 8 10 10 11 10 10 9 8 8 9 10 10 10 10 10 10 9 11 13 20 27 36 49 62 70 77 82 87 82 78 73 66 58 51 44 36 34 30 29 29 29 30 28 26 24 23 22 21
7 8 7 8 8 8 8 9 9 9 10 10 10 10 10 11 11 10 10 10 10 10 9 8 8 9 9 10 11 13 14 15 16 17 19 19 20 20 21 23 24 25 25 26 24 23 23 22 22 21 20 20 19 19
9 9 10 11 12 12 13 13 14 15 16 16 15 14 15 14 13 13 13 13 13 12 12 12 13 14 15 16 18 20 21 22 24 24 26 26 26 26 26 26 26 26 26 26 25 23 21 19 18 18 19 20 21 23
12 13 15 16 17 18 19 19 19 19 19 19 19 18 18 17 17 15 14 15 16 18 21 24 28 30 31 31 31 31 30 29 28 28 30 33 35 36 34 29 25 21 19 18 18 19 19 21 23 27 33 40 42 43
17 19 20 22 24 25 24 24 24 22 21 21 23 24 20 17 15 16 17 22 28 35 42 44 43 41 39 38 37 37 39 40 41 40 39 38 33 27 23 21 21 21 21 22 26 30 31 30 27 20 16 14 13 14
25 30 34 38 38 38 38 33 29 29 30 26 22 18 14 14 15 17 18 20 21 23 26 28 33 36 38 38 36 35 33 31 27 26 23 23 22 23 25 30 34 34 33 27 17 12 12 12 11 11 12 14 17 21
47 50 54 54 51 45 39 36 33 28 22 16 14 15 19 22 24 26 27 27 28 28 28 28 28 27 26 26 25 25 24 24 24 27 32 36 39 38 35 28 18 13 13 14 14 14 14 14 14 14 14 15 17 21
70 66 60 50 45 42 36 29 21 14 14 18 24 25 27 28 28 29 28 26 26 27 28 29 29 29 28 28 28 28 32 36 38 37 33 26 18 14 14 14 14 14 14 15 15 16 16 16 16 17 17 18 19 21
62 56 52 46 36 28 20 15 16 22 27 29 30 32 33 34 31 29 29 33 36 37 38 38 40 43 45 44 43 41 34 24 19 16 15 15 16 16 15 15 15 17 18 19 20 20 21 20 20 20 19 20 21 22
55 47 37 26 19 18 18 21 27 32 34 36 37 38 37 33 34 38 45 50 50 47 43 38 33 29 25 22 21 20 18 17 17 17 17 17 17 18 18 19 20 21 22 22 22 23 25 26 26 24 23 22 23 24

GFSWCAN_500_rhum_027.txt.gz
RH
72 93 94 100 100 100 93 89 96 80 68 100 100 98 100 100 100 95 94 40 19 4 3 5 9 10 9 10 10 11 21 85 92 91 89 62 55 97 99 91 84 61 66 63 38 47 53 50 49 28 13 10 15 20
45 78 97 82 91 99 100 86 100 66 87 100 97 100 100 100 93 100 98 37 13 7 29 5 8 11 10 9 8 9 31 53 75 88 73 68 65 93 100 80 80 82 74 76 64 36 47 41 28 23 10 12 16 18
40 65 98 94 91 77 77 95 100 100 99 99 99 100 100 100 98 74 86 35 13 5 14 40 7 8 11 9 8 8 14 77 79 77 70 60 60 90 95 75 71 72 77 67 71 47 36 27 33 13 13 13 13 14
93 89 94 100 100 96 96 100 100 100 100 100 100 100 100 100 100 100 99 40 24 16 11 17 65 30 10 10 8 7 8 38 62 65 72 64 60 61 47 86 80 64 70 88 88 38 24 29 26 12 13 14 15 18
100 97 97 98 96 99 99 98 100 100 100 100 100 100 100 100 100 94 57 28 16 34 70 56 99 100 65 11 9 7 7 8 29 37 50 57 49 42 42 57 72 62 62 76 89 42 33 35 24 13 15 17 17 22
99 100 100 97 100 99 97 100 100 100 100 100 100 100 100 92 56 49 39 14 22 42 100 87 46 83 60 70 48 8 7 6 8 10 13 22 27 23 26 39 59 78 80 90 96 73 50 56 41 19 19 24 31 29
96 99 99 96 96 96 97 98 98 100 100 100 100 100 83 53 35 28 15 45 87 87 81 100 100 82 47 39 60 84 24 7 7 8 9 13 17 24 46 33 83 59 84 91 96 99 80 78 46 27 26 28 27 28
84 91 92 95 98 99 97 98 100 100 100 99 100 84 70 52 36 27 17 98 100 100 59 64 75 93 58 48 62 70 75 40 14 7 6 7 9 33 47 48 38 64 93 95 95 100 94 100 72 36 40 44 39 37
54 67 73 68 64 61 80 94 92 94 94 98 88 76 66 42 29 41 67 82 91 77 100 76 44 45 49 50 56 72 69 68 52 11 7 10 7 10 24 54 65 80 100 98 99 95 99 100 99 98 94 100 72 51
74 65 54 52 52 53 48 42 60 67 68 73 73 74 63 47 62 87 100 100 85 37 100 100 91 44 28 34 64 75 62 60 52 41 17 12 11 9 9 40 64 86 98 98 98 100 98 93 92 89 77 68 62 62
67 50 61 39 32 25 28 36 35 49 60 58 40 34 36 36 42 62 66 48 57 55 70 63 39 68 27 12 86 92 95 85 64 46 33 22 16 21 28 36 51 82 100 96 100 100 96 99 100 94 100 100 94 99
48 42 74 51 42 32 22 24 27 30 29 32 30 29 51 78 82 99 100 100 78 47 58 29 22 46 43 82 88 72 100 94 75 54 30 20 32 50 57 67 78 80 73 88 98 100 100 100 100 100 100 100 100 99
31 38 64 68 60 52 27 24 24 23 24 25 57 78 70 97 100 97 100 100 92 79 46 8 24 90 75 62 82 74 95 72 72 72 80 73 78 84 91 84 85 100 100 93 100 99 99 96 98 98 97 89 81 75
33 45 96 100 93 98 97 96 99 79 67 89 100 100 91 100 77 89 100 100 84 50 32 17 98 90 90 100 98 98 80 94 100 100 94 99 100 98 100 100 98 99 96 96 89 82 86 86 83 84 86 91 96 100
80 93 100 98 95 100 100 97 100 99 100 100 100 100 100 100 85 100 94 66 65 56 55 64 62 81 100 100 98 80 80 91 95 88 67 99 100 100 100 100 89 79 88 91 89 92 96 96 100 100 100 100 100 100
97 96 100 100 100 97 98 100 100 100 100 100 100 100 100 100 100 99 100 100 100 100 96 90 100 100 100 100 100 98 92 96 100 100 100 96 97 99 98 100 100 100 100 99 100 100 100 100 100 100 100 100 100 100
100 100 100 100 100 100 100 100 100 100 100 100 100 100 100 100 100 100 98 94 91 91 85 82 88 88 81 83 100 98 100 100 100 100 100 100 100 100 100 100 100 100 100 100 100 100 100 100 100 100 100 100 100 100
98 95 99 100 100 100 100 100 100 100 100 98 92 99 98 88 95 95 93 93 88 84 84 77 76 85 97 99 80 87 94 100 100 100 100 100 100 100 100 100 100 100 100 100 100 100 100 100 100 100 99 99 100 100
100 100 93 99 100 100 100 100 100 100 100 89 85 85 77 78 78 69 63 64 66 71 75 78 84 86 94 98 100 100 100 100 100 100 100 100 100 100 100 100 100 100 100 100 100 100 100 100 100 100 100 100 100 100
100 100 100 100 100 100 100 98 100 100 98 99 99 99 94 89 88 86 82 79 84 94 98 99 100 100 99 100 100 100 100 100 100 100 100 100 100 100 100 100 100 100 100 100 100 100 100 100 100 100 100 100 100 100
100 100 100 100 100 100 100 98 98 94 91 91 96 100 100 100 100 100 98 97 98 98 100 100 100 100 100 100 100 96 96 97 100 100 100 100 100 100 100 100 100 100 100 100 100 100 100 100 100 100 100 100 100 100
93 88 96 93 92 86 85 84 81 79 78 79 82 81 81 80 78 82 87 92 92 94 95 96 99 100 100 100 100 100 100 100 100 100 100 100 100 100 100 100 100 100 100 100 100 100 100 100 100 100 100 97 93 83
84 86 78 75 75 72 74 79 83 83 85 85 86 86 86 85 80 76 76 77 75 72 70 67 64 65 67 70 77 81 90 99 100 100 100 100 100 100 100 100 100 100 100 100 98 96 90 83 74 61 47 33 27 26
21 13 8 8 8 7 9 10 9 8 7 7 7 6 6 6 6 7 7 7 7 8 8 8 8 8 8 8 8 8 8 8 10 12 20 27 35 35 37 37 38 33 31 26 25 24 24 24 24 24 24 24 24 25
8 9 8 9 9 10 10 11 11 12 12 13 12 12 12 12 12 12 12 12 12 12 11 11 11 10 10 10 9 8 8 8 9 10 12 14 16 17 18 20 22 23 23 24 24 24 26 27 28 27 26 23 19 16
16 13 13 13 14 14 16 16 16 16 16 15 15 14 14 14 15 15 14 14 14 13 12 11 11 11 11 13 14 15 16 18 19 21 23 24 25 25 25 26 26 27 30 32 33 33 30 25 20 17 16 17 19 20
15 14 14 15 16 17 18 20 21 23 23 23 22 20 18 19 17 16 15 14 13 12 12 12 13 15 22 30 33 36 36 35 34 34 34 34 34 36 40 42 42 39 35 30 23 19 19 21 24 23 18 13 12 12
15 15 16 17 18 19 21 28 30 30 29 27 27 26 22 19 17 15 13 12 12 13 16 19 20 22 23 23 26 30 36 39 42 42 42 39 34 30 25 22 21 21 22 24 27 28 21 14 13 14 14 14 14 15
17 17 17 19 21 30 35 37 36 34 32 29 25 21 19 18 15 12 13 16 19 20 21 23 24 26 26 27 27 28 28 28 27 26 25 24 23 23 23 27 31 30 25 16 13 14 14 15 16 17 18 18 19 19
20 21 23 29 35 39 40 38 35 32 27 25 24 20 16 13 15 18 19 21 24 26 27 26 25 24 25 25 26 26 26 26 26 27 28 31 32 30 25 18 14 15 16 15 15 16 18 18 18 18 18 18 20 21
30 37 42 44 43 42 40 35 30 28 27 23 18 14 17 20 21 22 25 28 28 27 27 30 34 35 36 36 38 40 41 40 38 31 23 18 15 15 16 16 17 17 18 20 20 20 21 22 21 21 21 22 25 29
53 55 53 48 43 37 34 34 30 25 19 14 17 22 24 24 26 27 27 28 32 39 43 45 44 40 34 29 24 22 20 19 18 16 17 17 17 18 19 20 21 21 22 24 26 27 29 30 31 30 27 29 34 36
60 53 45 40 41 40 33 28 21 15 16 22 28 29 26 27 28 30 38 40 37 32 27 23 22 22 22 22 23 20 17 17 18 19 19 19 20 22 23 24 25 27 29 31 32 33 34 35 39 42 40 44 46 43

GFSWCAN_500_rhum_030.txt.gz
RH
72 79 73 99 100 98 96 94 99 100 99 97 100 88 62 100 100 97 100 100 99 82 92 77 77 83 24 14 30 12 16 41 91 95 99 72 94 98 99 100 78 85 74 70 69 64 24 30 40 66 61 41 24 10
93 83 59 83 96 91 83 83 96 98 89 94 74 58 99 100 100 100 100 100 92 94 78 70 30 72 46 20 16 12 15 22 62 96 93 79 76 95 95 98 100 96 79 68 54 43 56 43 49 82 65 33 23 10
99 54 70 86 69 80 99 100 100 100 88 81 63 100 100 100 100 100 100 94 55 42 80 100 100 73 92 12 11 12 10 12 40 80 82 100 95 95 96 88 86 77 100 92 88 74 81 75 50 40 45 27 24 10
93 59 54 59 60 67 95 84 96 100 76 97 100 100 99 99 100 100 100 88 69 53 69 97 100 71 38 7 10 10 10 11 15 22 60 86 94 90 96 87 74 94 100 98 84 78 74 99 94 46 33 23 22 10
100 86 65 96 100 88 77 64 100 88 90 100 100 100 100 100 99 100 86 64 58 34 81 81 100 64 20 6 10 10 10 10 20 35 56 70 73 80 87 95 86 90 95 95 81 98 99 97 61 26 20 23 21 12
100 100 92 95 98 100 100 94 86 96 100 100 97 96 91 97 100 70 86 100 67 68 100 100 100 73 45 8 10 10 10 10 10 16 66 73 70 64 63 60 65 88 95 84 89 95 74 72 83 49 31 32 27 17
100 100 100 91 96 92 90 87 86 84 87 90 86 80 82 74 78 87 78 96 64 84 100 100 100 99 97 45 18 11 9 8 8 8 14 50 64 60 56 55 62 71 63 92 91 95 98 100 97 100 68 36 40 29
100 100 100 100 98 98 99 94 92 90 86 84 87 92 92 90 93 81 69 60 67 72 99 100 100 82 86 99 89 20 13 9 7 7 7 10 26 26 24 25 34 24 33 46 64 94 86 92 98 99 94 83 74 64
92 99 100 95 90 86 80 73 73 78 86 90 93 94 81 58 47 38 35 60 84 94 100 100 98 82 84 86 100 94 99 61 14 10 9 7 7 9 10 11 15 15 21 59 72 99 88 94 98 98 100 100 100 94
71 68 81 97 97 93 94 96 99 99 94 79 78 91 79 39 48 96 88 100 100 99 100 100 62 51 46 48 42 68 94 100 100 88 60 18 9 7 7 7 7 10 34 64 70 79 92 100 100 94 90 82 80 96
38 41 48 53 80 98 100 98 93 88 93 91 70 48 43 78 100 99 85 64 92 100 100 100 96 84 78 89 84 61 100 100 88 79 60 43 36 22 10 14 14 10 8 8 20 58 71 87 88 99 98 100 100 100
29 28 31 39 43 67 80 78 69 59 46 45 47 39 52 71 78 70 69 97 94 97 97 63 58 40 30 50 79 79 86 98 74 73 65 41 38 40 31 22 16 16 38 40 43 51 58 72 86 92 95 100 100 90
56 20 19 27 33 30 30 38 34 29 26 26 32 60 80 89 80 65 31 61 69 82 90 71 100 90 51 22 25 70 77 82 100 100 75 62 61 69 64 50 60 74 71 66 72 76 80 99 89 100 93 95 100 100
47 19 21 23 26 27 27 26 28 30 45 83 98 100 100 100 100 100 96 46 77 93 64 40 34 58 40 26 60 46 46 68 83 60 51 73 88 99 95 99 99 88 90 100 99 95 85 99 100 99 100 100 100 98
91 74 55 37 33 34 30 31 53 87 96 100 100 100 100 100 100 100 100 89 71 41 13 13 65 73 55 100 98 60 47 47 49 68 67 65 68 67 88 99 100 100 100 100 100 99 100 99 86 89 92 91 95 96
99 97 96 87 89 95 91 92 96 98 98 100 100 93 100 100 100 100 95 77 60 38 63 58 86 82 100 82 100 100 100 85 67 56 60 72 77 94 100 100 99 100 99 99 99 99 98 98 99 97 92 92 97 100
94 98 100 99 96 96 97 100 100 100 100 100 100 100 100 100 100 100 100 100 100 100 79 70 81 93 82 78 67 71 85 94 80 79 86 90 100 100 99 97 95 96 100 100 100 100 99 100 100 100 100 100 100 100
100 100 100 100 100 100 100 100 100 99 100 100 100 100 100 100 100 100 100 100 100 100 99 100 100 100 95 87 88 100 100 100 100 100 100 100 100 100 100 100 100 100 100 100 100 100 100 100 100 100 100 100 100 100
100 99 100 100 100 100 100 100 100 100 100 100 96 99 100 100 100 100 100 100 100 96 85 77 79 79 78 76 80 86 91 91 98 100 100 100 100 100 100 100 100 100 100 100 100 100 100 100 100 100 100 100 100 100
100 100 100 100 100 100 100 100 100 100 100 100 100 100 100 100 99 97 93 90 91 95 97 96 96 97 96 98 99 100 100 100 100 100 100 100 100 100 100 100 100 100 100 100 100 100 100 100 100 100 100 100 100 100
100 100 100 94 100 100 100 100 100 100 100 100 100 98 97 96 94 98 100 100 100 100 100 100 100 98 98 98 98 100 100 100 100 100 100 100 100 100 100 100 100 100 100 100 100 100 100 100 100 100 100 100 100 100
100 100 100 100 100 100 100 100 100 100 100 100 96 93 90 90 89 89 84 82 83 84 86 88 89 92 95 96 98 99 99 100 100 100 100 100 100 100 100 100 100 100 100 100 100 100 100 100 100 100 100 99 96 84
100 100 99 96 91 86 81 81 83 82 75 62 59 54 49 43 35 28 20 19 17 14 14 14 13 10 12 12 11 11 12 10 10 11 10 15 14 18 18 24 28 33 39 44 45 41 40 36 30 27 23 22 22 21
82 69 52 51 50 35 37 36 35 28 17 10 7 6 5 5 6 6 6 6 6 6 7 7 7 8 8 8 9 9 10 9 9 9 10 10 10 10 10 11 13 15 17 18 20 21 22 23 23 23 24 25 28 29
16 12 8 6 6 6 6 7 7 7 8 8 9 10 11 10 10 10 9 9 9 10 10 11 11 11 11 10 10 10 9 9 9 9 10 11 13 15 17 20 22 25 28 28 28 28 28 30 32 33 32 28 21 17
10 9 10 10 11 10 12 14 15 17 17 17 18 17 17 16 16 16 15 15 15 15 15 14 13 12 12 11 10 9 10 11 13 16 18 21 23 26 28 29 30 30 32 34 34 32 29 24 20 18 17 18 20 18
18 16 15 14 14 14 16 17 18 20 21 22 23 23 22 22 21 20 19 18 16 15 13 12 10 10 10 12 14 16 18 19 20 21 23 26 30 32 33 33 33 30 26 23 21 19 19 21 22 21 17 14 14 14
16 16 16 16 16 17 18 18 20 22 25 28 28 28 26 23 21 18 17 15 14 12 11 12 14 15 17 18 20 21 22 24 24 25 25 25 25 24 24 24 24 23 23 22 24 24 18 14 14 15 16 17 18 18
18 18 18 17 17 17 18 20 24 30 32 32 30 26 23 20 18 16 14 13 12 14 16 17 18 21 23 24 24 24 23 23 24 24 24 24 24 25 26 27 27 25 19 14 15 16 17 18 19 20 21 23 24 25
20 20 20 19 18 20 28 35 37 36 34 29 24 21 19 17 15 14 13 16 17 18 19 21 23 24 25 27 30 32 34 34 34 34 35 32 30 24 18 16 16 17 18 19 20 20 21 23 24 26 28 28 27 27
22 21 21 28 40 46 47 42 37 30 26 23 21 18 17 15 15 17 18 18 18 21 24 27 32 36 39 40 39 35 30 24 21 20 18 17 16 17 18 19 21 22 22 22 24 26 29 31 30 26 22 24 31 40
34 48 58 59 55 46 40 34 30 27 24 21 20 16 14 17 20 19 18 21 27 32 34 33 31 27 24 21 20 19 20 20 18 16 17 18 20 22 22 22 22 23 24 27 30 34 33 28 23 25 30 34 42 52
64 62 58 54 46 40 36 32 29 27 24 19 15 16 21 21 19 20 28 30 29 26 23 22 22 24 26 26 24 20 17 17 18 19 20 22 22 22 23 23 24 26 27 30 36 37 34 29 26 30 36 41 46 53

GFSWCAN_500_rhum_033.txt.gz
RH
84 80 35 58 76 96 83 77 87 86 97 92 100 92 75 68 98 100 98 100 100 100 100 100 100 97 94 75 57 72 98 37 43 91 77 77 93 100 99 100 100 100 96 87 87 80 40 46 41 56 38 55 58 42
76 46 41 76 90 69 77 100 99 99 100 92 98 88 80 88 100 100 100 100 100 100 100 100 100 98 60 68 46 42 37 33 52 86 64 73 88 100 98 97 100 100 98 100 83 60 66 68 78 78 41 43 40 36
68 42 68 59 87 63 73 87 100 95 91 99 97 58 68 100 100 100 100 100 100 100 100 100 92 71 99 86 72 74 90 54 38 63 68 82 77 100 100 100 98 99 100 95 97 74 68 62 75 100 76 50 64 53
86 96 55 46 99 100 92 94 100 100 96 87 63 82 100 100 100 100 100 100 100 100 99 100 98 72 100 99 48 20 62 82 41 34 81 70 76 95 99 99 96 98 94 95 70 80 91 81 92 98 83 62 29 31
100 100 97 76 90 92 97 96 100 100 100 100 100 97 99 99 100 100 100 100 100 100 96 95 75 72 97 100 36 16 40 51 30 37 64 67 70 84 79 76 84 93 94 98 93 98 100 99 100 95 93 84 60 35
92 67 81 71 82 100 99 85 64 79 92 66 68 78 100 99 99 100 100 96 93 76 80 89 99 90 74 41 18 8 12 45 22 27 59 45 56 80 75 69 78 86 98 97 96 98 95 100 100 93 91 90 61 33
100 92 98 100 67 63 92 94 47 52 43 59 81 87 100 100 100 95 85 79 54 36 92 99 75 76 36 10 6 8 9 11 26 20 33 49 55 58 66 65 72 97 99 98 100 96 97 96 100 100 84 78 76 95
97 96 91 94 100 73 70 77 76 67 68 85 94 99 96 95 94 88 75 78 33 42 75 89 100 79 28 13 7 6 8 10 14 21 16 38 47 60 60 63 96 100 99 99 96 96 96 97 98 95 96 100 95 95
100 91 84 83 74 84 83 78 84 83 90 96 91 95 90 87 70 92 96 52 78 91 100 100 100 100 100 37 8 7 9 11 10 10 10 10 11 54 85 75 71 87 59 87 88 52 39 80 97 96 97 100 97 93
100 100 100 97 89 85 84 81 83 84 80 82 89 94 94 92 100 92 91 43 100 100 100 100 100 100 100 98 45 17 12 12 11 10 9 8 8 13 13 8 7 8 10 22 38 32 15 23 50 52 79 100 93 99
97 96 95 96 98 100 100 100 100 100 100 100 100 94 85 75 74 68 70 37 90 100 100 100 100 99 100 100 89 95 88 52 78 67 46 56 44 13 12 9 8 7 7 8 9 10 22 52 63 66 70 93 96 91
84 90 91 95 99 95 90 85 87 94 90 78 61 55 67 100 99 82 49 28 49 94 100 100 100 99 100 100 100 100 100 97 92 91 99 91 58 47 42 39 32 15 8 14 16 11 9 9 10 12 31 62 72 79
62 68 78 71 60 58 54 60 64 57 52 72 100 99 83 100 99 64 93 48 39 100 93 88 65 59 45 46 58 65 100 100 100 89 82 69 68 54 51 72 62 48 34 23 18 16 16 34 41 41 48 60 67 90
57 60 66 53 51 37 31 30 38 51 54 76 83 90 85 83 92 100 100 93 94 78 53 50 42 41 49 73 77 77 69 100 84 83 88 72 92 93 84 79 90 87 79 63 58 62 65 78 84 81 81 86 100 100
34 38 28 27 26 25 25 36 79 99 100 100 98 92 67 62 66 92 93 98 76 82 97 98 56 37 28 24 20 32 56 66 54 34 37 56 67 66 72 74 62 66 85 90 88 94 100 100 94 99 100 100 100 100
30 27 27 28 25 37 70 98 100 100 98 100 100 100 100 90 48 90 85 89 88 98 80 43 36 38 33 73 71 30 14 14 17 30 54 83 81 78 86 79 88 93 85 97 100 100 100 100 100 100 100 100 100 100
60 57 52 49 49 78 94 100 100 100 100 100 100 100 100 75 40 50 38 26 18 13 17 39 70 42 28 34 78 94 100 99 100 98 90 82 93 100 100 100 100 100 100 100 96 92 88 94 97 99 98 97 100 100
98 90 90 95 97 98 99 100 100 100 100 100 100 100 100 100 94 70 46 36 25 34 78 96 96 92 87 85 75 74 96 98 94 95 98 96 99 100 100 100 100 100 100 100 100 100 100 100 100 100 100 100 100 100
100 100 100 98 98 98 100 100 100 100 100 100 100 100 100 100 100 100 100 100 100 100 100 99 100 100 100 100 100 100 100 100 100 100 100 100 100 100 100 100 100 100 100 100 100 100 100 100 100 100 100 100 100 100
100 100 100 100 98 100 100 100 100 100 100 100 100 100 100 100 100 100 100 100 100 100 100 100 100 100 100 100 100 100 100 100 100 100 100 100 100 100 100 100 100 100 100 100 100 100 100 100 100 100 100 100 100 100
100 100 93 98 100 100 100 100 100 100 98 100 96 95 100 100 100 100 100 99 100 100 100 100 100 100 100 100 100 100 100 100 100 100 100 100 100 100 100 100 100 100 100 100 100 100 100 100 100 100 100 100 99 98
100 100 100 93 91 100 100 100 100 99 98 93 92 95 96 92 88 89 89 90 87 84 80 77 75 73 71 68 69 72 69 71 75 77 82 83 79 77 74 73 70 70 70 66 67 66 67 70 68 65 62 54 47 38
100 100 98 98 99 99 93 86 83 73 64 52 43 29 20 14 9 8 6 6 6 6 7 7 7 7 7 8 8 9 9 9 9 9 9 9 8 8 8 8 8 8 9 9 9 9 9 10 10 11 11 12 13 15
98 96 72 54 53 52 51 42 25 12 8 6 6 6 6 6 6 7 7 7 8 8 8 8 8 8 8 8 8 9 9 10 11 11 11 11 10 10 11 11 12 12 13 13 14 15 15 16 18 20 21 23 24 24
72 37 22 10 8 8 6 6 7 7 7 7 8 8 9 10 10 10 10 10 9 10 10 10 10 10 10 10 10 9 10 10 12 11 10 10 10 11 12 15 17 19 21 24 26 28 30 31 30 29 24 19 18 17
16 13 8 9 9 9 9 9 10 10 11 12 13 14 14 14 14 14 14 14 14 14 14 14 14 12 11 10 9 9 9 10 11 12 13 15 16 17 18 18 19 20 21 21 22 22 21 20 20 20 20 20 18 16
11 12 13 12 12 11 10 10 12 14 15 15 15 17 18 20 20 20 20 20 19 17 14 12 10 9 8 9 10 12 13 15 16 18 19 20 21 22 22 22 23 22 22 22 21 21 22 22 21 18 15 14 15 16
17 16 14 14 13 13 14 15 15 16 16 18 20 25 26 26 25 22 19 16 13 11 10 9 9 11 13 14 16 18 20 22 24 24 24 23 22 21 21 21 21 22 24 24 23 18 15 15 16 17 19 21 22 23
16 16 16 15 15 14 15 16 16 17 24 30 33 33 28 24 20 17 14 13 11 10 10 12 14 16 18 20 22 24 24 25 26 28 29 30 32 32 31 28 24 17 15 15 17 18 20 21 22 24 26 27 23 20
15 15 14 16 18 17 18 21 31 40 41 38 32 27 23 20 17 15 13 12 12 13 14 16 18 22 26 30 32 34 37 37 35 30 25 21 18 16 14 15 16 17 19 20 21 22 24 26 30 30 27 21 21 23
19 20 20 20 21 25 38 46 47 43 36 31 27 24 21 18 16 15 13 15 15 16 20 24 28 29 29 29 28 25 24 21 19 18 17 15 15 16 18 20 21 22 23 24 24 25 27 31 33 35 32 29 26 26
21 23 24 34 49 54 52 49 44 38 33 29 26 23 21 18 16 15 16 16 19 24 26 25 23 22 22 22 22 23 22 21 20 16 17 18 20 21 22 24 26 28 28 27 26 26 28 33 37 40 42 38 37 33
44 55 57 54 56 61 58 50 42 38 34 30 27 23 19 17 17 19 19 23 25 25 23 23 26 29 31 31 28 25 21 18 18 18 20 21 22 25 27 28 28 28 28 28 28 26 27 30 35 40 45 45 44 39

GFSWCAN_500_rhum_036.txt.gz
RH
20 53 83 55 30 52 57 48 55 77 91 82 98 100 100 100 95 46 41 100 100 100 100 85 84 94 100 100 95 91 100 70 45 30 90 97 52 40 66 92 99 100 100 92 83 93 87 88 96 66 73 77 100 82
82 88 61 36 49 48 47 53 76 62 100 82 94 100 100 100 100 59 68 100 100 96 98 73 100 100 100 95 96 85 82 98 88 52 38 48 38 34 58 79 90 97 100 100 89 80 90 100 94 68 85 94 94 75
90 87 99 61 55 75 64 59 81 79 86 95 99 98 100 100 99 78 90 100 100 87 87 96 99 100 100 100 81 92 75 63 73 100 100 89 43 50 65 60 92 100 100 96 97 92 97 82 91 85 100 99 96 98
81 73 94 62 70 89 83 88 96 97 94 97 99 96 100 98 82 91 100 100 100 95 100 100 99 100 99 86 90 64 82 52 84 91 100 79 49 54 67 79 92 98 99 100 85 93 95 94 100 88 91 100 100 100
59 69 88 89 98 92 84 96 100 100 100 100 100 100 100 77 99 100 100 100 100 100 98 100 98 89 87 82 78 62 44 60 85 67 39 46 62 85 64 75 69 98 99 100 100 100 99 96 89 84 88 91 99 99
98 99 100 93 100 94 100 76 68 91 78 60 95 96 96 98 100 100 100 100 100 100 100 98 80 82 84 76 50 82 100 91 100 100 100 60 51 69 64 52 66 99 100 100 99 100 91 92 98 98 95 97 100 79
68 80 96 97 90 100 100 98 70 62 76 97 100 100 100 92 100 100 85 98 96 97 84 72 77 88 73 66 63 62 99 68 84 82 71 61 51 56 62 60 65 80 97 100 96 93 87 100 94 87 99 99 98 98
56 90 80 58 80 100 100 100 100 100 99 98 99 99 97 100 100 98 98 93 88 81 77 78 59 47 38 64 59 45 50 53 93 100 77 50 62 75 75 68 70 92 87 91 80 76 84 97 96 96 97 97 92 99
70 70 88 87 74 65 60 71 73 87 92 98 93 88 92 92 87 77 77 69 71 56 71 63 92 100 92 71 78 50 55 78 92 89 88 58 62 95 86 98 93 91 92 84 79 90 94 93 92 89 98 98 99 98
89 86 83 83 86 81 70 71 70 77 79 98 92 93 86 84 85 68 64 55 38 48 73 86 100 100 64 48 66 89 88 80 45 16 18 27 37 44 60 67 91 98 84 85 85 94 84 82 89 82 81 85 91 98
94 99 100 97 96 98 99 100 100 100 100 91 81 81 86 82 82 84 86 60 27 47 84 100 100 93 75 62 81 73 41 22 13 13 12 10 10 13 16 12 27 20 41 16 13 24 72 55 62 56 46 34 18 49
93 92 96 100 100 100 100 100 100 100 100 100 100 100 99 100 80 81 49 44 76 99 100 100 100 100 100 100 98 100 94 29 19 30 18 11 11 9 10 14 18 18 11 9 8 8 8 8 10 11 15 15 34 54
100 100 100 100 100 100 100 100 100 100 100 100 100 100 100 86 66 48 40 77 98 100 100 100 100 100 100 100 98 100 89 85 65 59 28 60 66 73 87 91 74 59 50 38 24 12 8 8 17 17 13 11 13 14
82 83 92 88 87 82 95 92 78 65 81 92 93 100 96 69 52 44 36 59 99 100 100 100 100 100 100 100 100 100 100 100 100 98 100 80 76 87 89 87 89 92 91 80 68 53 40 35 38 49 62 60 56 76
52 53 44 33 32 41 77 79 83 90 100 99 100 98 99 83 57 41 34 79 99 100 100 100 100 100 97 100 99 97 93 100 99 97 98 100 100 96 88 97 98 93 90 92 95 100 100 100 100 100 100 100 100 100
28 26 25 37 65 99 97 99 100 100 100 95 77 85 100 95 100 79 44 72 97 95 99 99 92 57 41 47 38 43 57 62 67 76 54 42 36 29 39 63 80 90 91 90 88 96 100 100 100 100 100 100 100 100
34 45 58 88 98 98 100 100 100 100 100 100 100 95 67 89 100 38 42 59 73 44 37 36 35 46 36 63 77 41 34 31 36 37 46 67 94 98 98 96 94 100 100 100 100 100 100 100 100 100 100 100 100 100
59 70 85 93 100 100 100 100 100 100 100 91 42 51 68 94 47 38 38 32 42 43 51 43 29 46 47 57 96 99 99 98 100 100 100 100 100 100 96 100 100 100 100 100 100 100 100 100 100 100 100 100 100 100
100 100 100 100 100 100 100 100 100 100 100 77 40 53 57 70 75 74 83 96 100 85 64 100 100 100 100 98 93 98 99 100 100 100 100 100 100 100 100 100 100 100 100 100 100 100 100 100 100 100 100 100 100 100
100 100 100 100 100 100 100 100 100 100 100 100 98 79 69 54 30 34 30 23 60 94 100 99 100 100 100 100 100 100 100 100 100 100 100 100 100 100 100 100 100 100 100 100 100 100 100 100 100 100 100 100 100 100
100 98 100 100 100 100 100 100 100 100 100 100 100 100 100 100 100 100 100 100 100 100 100 100 100 100 100 100 100 100 100 100 100 97 96 95 91 92 88 87 81 84 86 87 90 90 92 90 83 80 74 69 64 54
98 96 95 89 90 95 100 100 100 100 99 89 97 99 96 97 97 97 94 94 95 93 90 87 84 78 68 57 44 31 20 12 8 7 6 6 6 7 7 7 6 7 7 8 9 9 9 9 9 9 9 9 9 9
88 92 93 86 84 99 91 88 84 80 71 68 69 65 53 39 34 32 37 27 16 9 7 6 6 6 6 6 7 8 8 8 9 10 10 9 9 9 9 9 9 9 9 9 10 10 10 10 11 11 12 12 12 13
94 96 97 92 82 83 80 58 39 22 11 8 6 6 6 7 7 8 9 9 9 9 9 10 11 11 12 12 13 13 13 13 12 11 10 9 9 9 10 11 12 13 13 13 13 13 13 13 12 12 13 13 14 14
95 60 51 39 34 32 16 9 8 9 9 10 10 10 10 10 11 11 11 12 12 13 15 16 17 18 18 18 17 16 14 12 9 8 8 9 10 11 12 13 14 15 16 18 18 19 20 20 19 19 19 18 18 19
66 30 11 8 8 8 9 10 10 10 10 10 11 11 11 12 12 13 14 15 16 17 19 20 20 19 17 15 13 11 9 8 9 10 12 14 16 17 19 20 21 22 22 22 21 20 20 19 19 20 20 19 17 16
18 12 10 10 10 10 9 9 9 10 10 11 12 12 12 12 13 14 15 17 20 22 22 20 17 14 12 10 9 9 10 12 14 16 17 19 20 21 22 22 22 21 21 21 22 23 22 20 16 16 17 19 21 23
12 12 12 12 11 11 11 11 12 12 12 12 12 12 13 15 18 22 24 25 24 20 16 13 12 10 11 11 11 12 14 16 18 20 21 22 24 27 29 29 29 27 25 19 15 15 17 19 21 23 25 27 28 28
15 15 14 14 14 13 13 12 12 12 12 13 15 19 26 29 30 28 24 20 17 14 13 12 12 13 12 13 16 19 22 25 27 30 33 34 33 27 21 18 16 14 15 18 20 21 23 24 25 28 30 31 33 34
17 16 15 14 13 13 14 14 14 14 18 30 35 37 35 30 26 23 19 17 15 15 14 15 14 14 17 21 24 25 26 27 28 27 26 22 19 17 15 15 17 20 22 24 26 27 29 29 29 29 30 32 34 37
18 17 17 17 17 17 16 16 19 34 44 45 41 37 32 28 24 21 20 18 16 16 15 15 17 21 23 24 23 22 22 22 21 20 19 18 16 16 18 20 23 27 29 30 31 31 32 33 33 32 32 32 35 39
22 22 22 21 22 22 27 40 50 51 50 48 42 36 32 28 27 24 21 17 17 16 17 21 22 21 21 23 26 30 32 32 28 24 18 17 18 21 25 28 30 29 24 21 20 21 26 31 33 34 35 36 40 42
32 31 31 30 37 52 59 60 60 60 55 47 43 39 36 33 28 21 17 18 18 20 22 21 17 14 14 16 18 20 22 22 19 18 19 21 24 27 27 23 18 17 18 17 18 22 29 32 34 36 39 43 42 39